COSMOS 2251 DEB, 35705

Orbit data source: Space-Track

COSMOS 2251 DEB, 35705 is space debris in LEO originally from a launch on Wed, 16 Jun 1993 UTC launched from the Plesetsk Missile And Space Complex (PKMTR). The debris from Iridium 33, an American commercial communications satellite, has been tracked extensively since its accidental collision with the defunct Russian satellite Cosmos 2251 in 2009. This event, occurring at high speed in low Earth orbit (LEO), generated thousands of pieces of space debris, significantly increasing the risk of further collisions. The Iridium 33 debris cloud has impacted space traffic management and orbital debris mitigation strategies, making it a subject of ongoing study in space situational awareness.

Loading next visibility...
Identifier
35705, 1993-036AQA
Orbit
LEO
Country
Flag of CISCIS
Related business
Manufacturer
Unknown
Mission
Spacecraft
Bus & Motor
Unknown
Mass
Unknown
Launch date (UTC)
1993-06-16 (33 years ago)
Launch vehicle
Unknown
Launch site
Plesetsk Missile And Space Complex (PKMTR)
Object type
Payload
Rocket body
Debris
Shape & HBR
Unknown shape, 0.1 m
Radar Cross Section
Small (<0.1 m²)

Expand to show TLE details & history
Last TLE update: 3 days ago

TLE from 3 days ago
0 COSMOS 2251 DEB
1 35705U 93036AQA 25352.10436169  .00012927  00000-0  20234-2 0  9992
2 35705  74.2733 125.5265 0033127  72.0768 288.4013 14.72409670860055
Epoch: 2025-12-18T02:30Z
TLE epoch observation values (Epoch: 2025-12-18T02:30:16.850Z)
Latitude
0.00002°
Longitude
0.99164°
Altitude
648.77 km
Speed
7.537 km/s
True Right ascension
08h 22m 06s
True Declination
0° 00' 00"
Sunlit
Object was in full shadow at epoch
Visualization orbit readout
Latitude
Unknown
Longitude
Unknown
Altitude
Unknown
Speed
Unknown
Apparent Right ascension
Unknown
Apparent Declination
Unknown
Sunlit
N/A
Visualization observer readout
Local Sidereal Time
11:08:47
Azimuth
Unknown
Elevation
Unknown
Doppler factor
Unknown
Orbital elements
Apogee altitude
674.235 km
Perigee altitude
627.664 km
Semi-major axis
7,029.086 km
Eccentricity
0.00331
Inclination
74.2733°
RAAN
125.5265°
Arg. of periapsis
72.0768°
True anomaly
288.04063°
Mean anomaly
288.4013°
Eccentric anomaly
288.22101°
Mean motion
3.68294 °/min
Orbital period
97.75 mins
BSTAR
0.0020234

Documentation

Showing up to 5 results
|